Wichita Falls, TX (76310)

8:45 AM CDT on October 02, 2014 (GMT -0500)
Southwest pkwy/Rhea Rd. | Change Station
CLOSE
Current Station
Personal Weather Station
Location: WICHITA FALLS, TX
Elevation: 984 ft
Nearby Weather Stations

Elev 984 ft 33.85 °N, 98.54 °W | Updated 1 minute ago

Partly Cloudy
Partly Cloudy
76.3 °F
Feels Like 78 °F
N
2.4
Wind Variable Wind from SSE
Gusts 4.0 mph

Today
High -- | Low -- °F
--% Chance of Precip.
Yesterday
High -- | Low -- °F
Precip. -- in
7:29 AM 7:17 PM
First Quarter, 59% visible
Pressure 29.77 in
Visibility 10.0 miles
Clouds Scattered Clouds 12000 ft
Heat Index 78 °F
Dew Point 67 °F
Humidity 72%
Rainfall 0.00 in
Snow Depth Not available.
UV 1 out of 12
Pollen 9.30 out of 12
Air Quality Not available.
Flu Activity Not available.
METAR KCWC 021335Z AUTO 17006KT 10SM SCT120 25/19 A2977 RMK AO2 T02460194

More Conditions Fewer Conditions

Pressure 29.77 in
Visibility 10.0 miles
Clouds Scattered Clouds 12000 ft
Heat Index 78 °F
Dew Point 67 °F
Humidity 72%
Rainfall 0.00 in
Snow Depth Not available.
UV 1 out of 12
Pollen 9.30 out of 12
Air Quality Not available.
Flu Activity Not available.
METAR KCWC 021335Z AUTO 17006KT 10SM SCT120 25/19 A2977 RMK AO2 T02460194

More Conditions Fewer Conditions

10-Day Weather Forecast

Almanac

Astronomy

Oct. 02, 2014 Rise Set
Actual Time 7:29 AM CDT 7:17 PM CDT
Civil Twilight 7:04 AM CDT 7:42 PM CDT
Nautical Twilight 6:35 AM CDT 8:10 PM CDT
Astronomical Twilight 6:06 AM CDT 8:39 PM CDT
Moon 3:10 PM CDT 1:03 AM CDT
Length of Visible Light 12h 37m
Length of Day
11h 47m
Tomorrow will be 2m 5s shorter.
First Quarter, 59% of the Moon is Illuminated
Today
First Quarter
Oct 8
Full
Oct 15
Last Quarter
Oct 23
New
Oct 30
First Quarter

Today's Extremes

State Highs State Lows

Community

WunderPhotos

Upload Photos

1,758,245 photos uploaded!

WunderBlogs® & News

Nearby

Snow Depth

Station Depth Elevation
No new snow has been reported.

Earthquake Activity

City Distance Mag. Time & Date
Guthrie, Oklahoma 152 miles 3.0 5:15 PM CDT
2014-10-01
Spencer, Oklahoma 136 miles 3.0 5:12 PM CDT
2014-09-30
Minimum magnitude displayed is 2.5.

Coastal Water Temperatures

Place Temperature
No Stations Reporting

Nearby Weather Stations